GFSFLT2_con_3kmhel_000.txt.gz
Helicity
161 133 124 100 104 114 105 102 91 56 50 45 53 82 91 98 100 105 91 87 92 84 69 67 79 80 88
149 118 108 98 125 106 90 98 74 55 26 36 41 31 41 52 55 58 45 59 88 101 91 62 50 66 31
178 164 168 161 132 67 74 73 99 46 24 19 15 24 16 26 31 66 94 93 93 92 88 94 93 79 46
194 148 186 152 91 95 84 105 144 131 76 49 28 27 24 21 31 44 57 61 48 31 5 21 29 26 62
169 163 136 83 74 85 131 149 131 108 96 131 94 113 97 38 24 29 34 33 23 20 42 50 55 18 58
162 116 73 83 116 134 127 113 -35 73 114 125 129 114 100 85 20 4 14 17 5 21 42 42 40 45 85
91 94 101 115 96 74 109 147 171 142 131 151 121 130 132 96 41 35 24 10 0 -17 -9 11 44 45 53
122 125 106 85 82 106 117 93 163 165 122 144 157 144 118 92 118 96 38 2 -4 -7 -15 33 53 53 69
50 9 13 15 13 -13 -16 -27 47 126 118 118 161 139 129 179 178 84 23 18 0 -16 -13 -19 6 86 85
10 42 31 64 26 33 51 53 101 164 141 140 170 138 56 153 72 78 62 85 58 50 21 9 -7 -59 1
42 64 83 91 88 91 113 115 146 217 172 115 156 126 91 72 177 141 53 69 123 113 84 75 57 16 -25
54 68 79 119 132 127 132 153 173 180 177 164 160 102 50 88 95 124 75 184 176 143 154 171 124 76 69
50 87 123 154 159 157 156 162 174 184 187 145 129 124 114 138 203 227 201 170 91 151 145 126 96 58 38
72 112 114 111 116 117 152 158 175 179 133 132 115 136 133 150 189 288 267 166 221 200 166 167 122 68 19
60 84 96 90 116 111 147 143 149 167 149 120 123 166 187 223 229 262 299 255 199 167 157 166 171 168 129
82 95 114 113 119 129 123 134 136 149 132 145 171 174 141 154 275 375 230 197 182 151 122 130 166 244 188
113 141 135 144 104 128 134 131 135 122 126 162 175 163 185 214 264 204 151 161 182 168 160 147 215 341 320

GFSFLT2_con_3kmhel_003.txt.gz
Helicity
214 174 152 130 124 100 100 128 102 38 47 47 73 67 42 53 59 65 31 66 85 96 53 65 43 35 54
198 191 174 145 112 126 64 63 59 10 9 47 38 30 48 56 47 43 25 -8 15 41 47 48 41 73 97
226 217 173 153 135 97 59 24 6 -15 24 37 22 39 44 29 18 10 16 38 87 111 110 109 102 71 67
218 190 188 142 134 103 40 16 34 58 54 56 48 38 29 38 31 35 34 62 71 73 77 67 54 32 11
179 186 184 126 104 92 108 87 97 134 108 104 109 150 143 67 47 16 9 17 41 57 55 44 20 3 19
202 184 171 173 149 127 89 -70 -18 133 151 145 145 146 141 143 62 12 -0 32 15 -32 -35 -26 56 40 49
175 205 132 110 73 65 88 124 116 141 34 75 153 157 167 153 88 73 51 26 8 -12 -22 -24 -28 -7 40
133 129 116 58 35 49 28 66 170 194 108 210 202 226 206 218 175 130 80 32 -4 -20 -18 -17 -25 -27 -27
54 37 45 37 26 21 35 41 123 164 146 181 217 206 193 265 232 139 93 42 -6 -6 -2 1 -8 -8 -2
65 60 68 88 35 38 55 101 157 204 174 173 172 140 117 238 132 134 99 122 35 13 16 13 12 -34 -5
79 103 103 93 93 101 124 160 167 227 177 101 178 171 171 118 237 173 108 111 105 97 61 36 34 37 74
93 102 90 102 110 118 139 164 192 179 174 164 222 195 202 228 277 231 173 165 147 112 104 134 102 60 62
92 108 120 113 117 131 145 150 160 166 178 192 184 200 239 297 331 314 226 197 93 123 147 162 150 152 108
110 120 123 118 118 109 127 145 151 158 157 154 171 202 228 260 264 293 250 148 223 198 186 136 83 64 74
114 119 150 145 142 116 139 146 140 159 195 182 165 193 239 253 277 289 252 235 191 144 110 119 95 67 54
120 151 185 182 149 145 127 137 141 164 185 178 176 167 180 165 295 386 290 216 164 140 111 108 130 179 106
144 172 146 132 45 72 118 147 141 145 139 157 170 153 183 190 225 107 174 144 117 118 207 216 192 265 291

GFSFLT2_con_3kmhel_006.txt.gz
Helicity
209 172 155 145 138 126 126 109 90 41 33 44 36 48 43 48 72 86 109 106 99 80 63 48 54 57 67
196 173 163 156 137 128 122 114 157 84 41 29 33 24 28 42 54 63 76 81 74 58 51 22 18 31 37
200 193 195 157 144 150 150 135 179 104 54 40 29 18 12 19 37 49 61 78 95 84 66 68 69 38 39
213 208 209 195 160 171 144 172 174 149 152 109 48 43 16 1 6 13 29 78 89 94 108 94 90 68 71
207 228 180 160 133 145 181 177 195 193 181 194 183 176 181 67 30 0 2 26 41 39 62 79 72 46 44
169 168 174 157 168 175 185 166 206 203 171 236 204 214 197 178 89 43 25 1 0 0 8 16 28 43 36
145 148 147 125 128 122 167 205 206 213 126 229 202 207 189 168 85 53 31 20 28 25 13 -1 -18 -14 -11
108 107 74 73 89 118 116 139 225 234 183 230 229 218 177 189 156 101 51 34 33 26 15 -2 -13 -14 -3
49 45 45 41 57 81 84 73 165 213 186 190 220 191 192 256 189 110 76 36 22 7 -5 -14 -20 -12 -18
60 63 66 98 51 76 81 132 139 192 198 182 207 204 270 383 280 247 178 171 59 21 -16 -28 -12 -21 8
88 106 117 119 120 119 115 131 143 195 182 126 260 269 264 360 375 281 177 173 122 93 45 15 11 19 59
95 121 119 134 150 143 138 153 181 190 194 183 270 259 289 364 399 373 285 220 164 136 129 106 56 44 44
104 130 146 174 172 148 139 140 170 177 176 193 232 256 290 385 432 388 302 244 127 199 207 194 150 133 119
124 138 136 145 151 131 155 146 170 181 158 156 150 202 265 262 257 345 322 235 280 272 258 188 144 163 153
127 113 121 113 129 115 150 163 162 171 184 167 137 158 192 187 198 214 228 244 228 217 200 162 117 154 149
125 126 135 137 98 97 90 123 136 147 149 124 139 146 139 116 136 173 118 124 129 133 214 160 161 232 190
125 155 146 145 38 53 42 31 37 87 111 93 78 47 82 97 110 54 73 111 122 151 173 223 216 244 169

GFSFLT2_con_3kmhel_009.txt.gz
Helicity
174 130 96 89 90 85 73 74 90 47 42 27 20 34 37 30 34 58 76 87 88 101 104 104 93 98 89
151 145 127 94 80 83 103 124 142 89 32 21 20 12 8 -0 -19 21 22 45 69 94 117 135 126 126 115
177 175 134 104 123 137 100 101 114 64 59 52 37 27 17 10 -8 -24 -31 -45 -46 41 84 88 100 118 102
179 177 146 116 115 107 95 107 97 102 128 90 79 61 44 29 9 -8 -25 -33 -36 -21 10 40 68 97 109
173 154 122 102 90 95 115 109 121 119 136 128 171 168 178 90 61 26 6 2 1 -12 16 29 36 47 55
144 134 107 106 101 92 116 116 122 103 103 183 181 183 179 148 63 18 13 5 -4 -1 3 -2 3 11 19
111 104 111 106 64 105 111 127 159 191 109 192 199 222 193 185 85 45 22 4 5 26 45 55 48 41 32
81 102 99 -2 93 116 106 116 196 195 130 216 234 219 222 291 185 78 73 39 18 34 60 63 43 32 14
42 48 32 29 57 104 131 126 119 173 144 180 210 226 293 347 204 173 143 87 41 16 6 1 -8 -8 -23
67 56 40 55 55 80 102 123 118 152 139 170 183 143 231 217 332 318 250 162 112 83 42 11 7 -2 77
56 51 66 75 81 76 77 116 119 181 185 125 176 184 188 331 396 327 275 267 219 135 66 42 39 38 64
48 62 79 105 112 112 110 132 147 164 176 146 171 178 211 276 297 272 259 257 159 156 161 129 82 53 48
69 95 104 116 128 105 98 97 124 142 140 125 137 172 174 219 206 192 148 199 107 207 249 215 193 131 87
75 88 73 96 109 79 66 66 64 97 108 95 110 118 124 137 110 167 169 166 231 244 255 200 170 167 201
77 86 79 75 98 69 55 42 26 27 72 104 76 65 80 110 125 130 173 199 230 218 259 198 147 170 214
101 115 118 98 89 62 30 -2 23 23 38 64 76 44 17 37 25 138 180 189 237 233 195 156 182 155 181
140 143 142 146 22 19 18 7 26 15 35 21 24 -25 -8 33 129 142 144 152 259 234 168 192 173 173 139

GFSFLT2_con_3kmhel_012.txt.gz
Helicity
204 186 167 135 128 123 107 118 106 38 30 30 30 25 27 27 19 23 22 31 36 40 54 50 46 41 68
188 168 141 126 122 94 103 99 87 57 23 20 14 17 23 28 -19 -22 -8 7 20 10 9 30 42 45 41
197 150 145 129 106 116 81 75 79 39 21 27 25 14 18 -23 -12 10 23 30 39 33 28 28 30 39 75
162 164 166 123 113 100 85 78 65 59 74 52 40 23 28 33 22 18 8 21 39 47 33 29 27 13 -12
180 182 135 117 92 93 86 73 68 69 111 84 109 134 145 86 68 36 40 54 57 66 49 38 28 18 15
147 153 100 97 91 64 81 28 56 73 105 149 134 143 173 165 82 65 60 55 37 33 36 34 22 10 13
120 94 91 70 72 85 -6 98 115 144 109 150 141 170 172 185 136 54 23 11 3 10 8 37 49 39 52
88 73 73 83 80 -48 36 -26 154 160 103 150 151 148 174 237 116 44 85 101 105 104 90 80 76 72 77
29 26 31 9 25 64 111 97 134 131 90 98 129 116 148 226 104 120 176 151 127 119 89 73 56 34 0
45 48 37 40 31 68 109 121 115 92 97 76 113 65 60 101 136 195 185 123 97 86 48 44 40 24 34
58 54 48 51 57 63 73 106 116 158 175 61 138 103 95 99 121 161 119 134 135 119 65 44 7 19 23
55 55 61 72 76 87 74 96 125 147 122 115 166 104 79 105 144 152 176 167 178 197 197 163 117 58 12
63 76 73 72 82 83 81 72 80 107 121 107 98 85 68 119 157 157 70 175 167 206 246 274 233 155 104
77 68 55 61 83 72 65 58 69 97 77 -36 71 60 63 98 82 118 173 206 212 223 229 274 211 185 195
85 92 90 88 101 83 71 35 30 45 64 21 -11 6 33 36 97 108 123 127 172 216 193 233 189 149 153
97 114 120 117 109 104 93 34 -6 18 7 2 16 11 -3 22 20 73 123 120 148 177 176 168 155 111 78
121 139 133 129 92 113 104 98 -2 1 0 -21 -15 -17 10 56 101 93 64 106 154 186 127 155 139 159 138

GFSFLT2_con_3kmhel_015.txt.gz
Helicity
217 221 213 188 195 168 156 126 125 60 33 39 34 43 39 30 27 29 15 23 19 22 17 33 35 40 39
212 200 182 170 158 143 113 138 103 64 34 29 22 18 25 15 28 29 32 18 17 41 33 29 24 25 31
248 221 178 158 137 123 106 112 125 75 28 18 15 4 13 40 35 30 -14 10 37 51 68 52 37 39 35
225 187 159 143 120 123 117 109 89 78 66 48 -6 22 36 41 15 -11 5 37 33 33 42 54 39 38 30
178 158 141 122 115 117 106 83 80 95 104 115 108 136 138 84 58 34 39 25 15 11 20 8 13 11 12
153 142 118 118 119 103 81 90 81 83 74 67 130 170 178 158 69 32 -1 -12 -1 11 8 9 0 -3 -5
118 137 130 109 105 125 105 100 105 63 84 93 152 162 156 157 123 59 -13 -4 20 26 49 67 95 108 88
127 125 104 109 129 119 106 125 115 146 122 141 130 125 142 201 191 38 10 47 62 64 75 83 63 58 67
43 26 18 13 37 111 121 134 74 146 128 145 91 115 96 189 178 29 27 53 42 26 34 34 29 39 51
74 63 55 60 27 72 102 126 128 106 132 120 106 74 75 177 115 162 92 65 19 20 37 40 28 72 99
81 88 84 79 82 60 64 123 135 148 147 81 115 102 149 126 143 142 80 65 95 68 68 62 46 57 94
92 101 101 103 97 99 108 136 159 182 165 111 184 139 119 65 89 137 106 84 91 125 144 133 122 127 93
112 119 128 137 123 113 113 106 115 131 153 134 164 129 155 16 47 124 36 48 86 115 164 191 239 216 168
107 134 144 138 135 124 121 118 127 141 111 116 69 -39 -6 2 11 100 47 105 185 195 156 168 185 217 225
123 134 142 131 132 132 143 146 138 122 49 95 77 16 20 59 44 110 75 148 144 96 64 107 177 174 151
130 145 149 139 139 148 148 139 143 142 84 19 12 15 40 66 48 6 71 107 121 99 109 89 170 175 116
141 158 159 158 115 151 152 158 154 150 103 40 -1 -2 57 129 196 102 12 103 134 127 121 106 116 185 134

GFSFLT2_con_3kmhel_018.txt.gz
Helicity
193 176 188 160 151 159 145 155 134 55 60 56 50 58 58 41 34 17 15 18 29 33 39 48 47 39 36
192 195 200 168 164 169 138 136 119 61 41 32 29 29 8 16 10 7 -1 8 24 31 33 22 17 26 35
208 199 182 167 158 145 127 128 122 63 41 23 25 10 16 15 6 -2 19 18 10 7 9 12 23 28 35
207 191 172 145 141 144 116 134 119 105 73 59 37 33 34 15 20 24 20 16 7 4 10 9 0 -2 5
179 173 143 114 119 131 137 114 108 114 108 147 117 166 130 80 66 52 34 18 5 23 21 -9 -31 -37 -15
154 126 114 127 159 128 126 133 138 119 128 132 131 141 144 154 59 48 42 13 25 20 -49 -38 -35 -37 -16
114 112 113 108 124 141 140 131 151 142 131 138 143 143 144 131 52 64 53 50 24 -9 -11 -14 1 43 56
92 88 100 88 99 113 107 125 124 105 112 142 181 121 103 127 94 44 61 54 25 21 14 -3 -9 28 32
17 17 20 14 47 106 107 110 98 106 139 145 127 99 103 123 85 34 138 105 89 49 38 4 -22 14 63
80 66 67 98 40 83 114 126 125 146 172 151 93 59 48 126 118 139 146 168 128 105 62 31 26 91 117
86 105 112 116 120 126 137 163 165 193 183 124 157 106 97 82 127 146 133 187 181 156 96 64 41 58 115
104 116 119 127 120 133 136 138 165 187 177 142 172 144 33 56 113 95 130 135 118 142 106 43 28 39 33
94 106 116 140 144 142 134 141 157 175 177 145 153 118 81 10 42 84 69 109 80 85 103 106 134 139 74
94 110 132 140 146 148 159 168 166 182 156 148 136 103 20 35 9 60 50 64 107 127 110 136 125 131 85
112 128 148 145 154 152 164 177 173 183 155 155 133 142 118 89 74 86 58 76 125 162 147 120 160 121 113
128 150 169 173 169 170 169 172 188 136 113 143 104 81 90 99 80 85 114 146 178 108 111 74 119 111 112
144 169 183 187 136 191 190 176 112 128 149 144 100 86 125 200 168 115 26 153 148 155 166 107 95 163 83

GFSFLT2_con_3kmhel_021.txt.gz
Helicity
177 146 152 134 145 154 134 138 137 73 71 70 81 91 99 68 65 48 36 34 30 32 33 34 42 46 39
173 161 152 167 181 175 159 145 142 88 51 52 61 71 36 29 27 35 29 40 50 50 44 36 44 48 45
185 175 188 172 178 155 157 135 112 55 47 38 38 37 33 36 43 46 45 47 42 29 29 24 20 21 27
205 187 169 149 140 147 117 111 111 96 83 59 20 49 42 55 50 45 40 31 32 25 20 18 17 16 20
203 181 151 140 128 114 119 110 103 100 111 100 123 137 143 88 68 50 34 45 30 16 13 15 18 18 17
190 161 137 118 132 113 129 119 100 80 112 104 108 129 128 124 54 55 67 57 23 16 10 32 37 31 15
154 130 125 110 122 130 117 119 118 121 123 126 122 144 140 113 73 60 65 69 53 50 52 54 49 43 24
124 122 119 104 97 98 94 113 129 121 113 145 138 158 118 131 66 9 31 62 71 70 51 54 52 49 29
36 35 38 31 52 98 101 108 111 115 111 121 116 142 117 122 68 -9 40 80 97 82 68 57 57 50 43
89 74 72 92 53 99 126 141 147 125 135 146 117 101 45 137 75 125 99 77 72 94 92 74 68 60 67
55 79 85 95 105 112 124 157 147 172 187 110 162 143 166 89 130 109 110 116 123 116 104 92 83 70 92
74 86 92 107 120 129 135 146 175 195 186 155 198 169 171 46 67 74 104 93 75 95 109 92 64 53 63
82 102 112 135 132 126 125 129 149 165 179 167 172 135 173 109 55 76 44 78 46 8 39 59 69 107 87
105 110 110 115 122 124 131 134 147 173 143 159 144 157 139 110 50 108 93 70 82 84 71 48 94 117 112
113 111 114 114 130 133 149 164 175 136 60 83 134 166 160 111 100 129 127 124 136 160 114 65 102 82 54
126 137 140 146 151 150 152 142 112 103 85 93 91 97 110 144 183 178 201 177 168 143 111 91 148 116 33
149 168 171 176 118 146 129 119 131 125 151 150 138 129 160 222 173 108 51 120 113 150 152 147 115 141 39

GFSFLT2_con_3kmhel_024.txt.gz
Helicity
185 164 166 144 141 163 150 169 160 98 115 115 113 117 109 89 84 78 69 66 51 40 48 43 45 43 37
174 172 155 158 176 169 182 163 173 110 90 86 93 93 86 83 72 80 85 64 58 64 70 64 56 43 48
189 185 177 170 166 174 184 157 141 83 62 63 68 70 72 75 85 86 78 66 67 58 57 52 52 49 50
215 207 192 157 169 188 174 137 131 116 95 58 52 58 71 78 92 86 71 65 65 51 39 37 33 35 40
234 232 165 164 182 147 141 111 100 106 105 85 126 144 182 115 86 56 54 59 61 46 39 24 17 26 29
238 183 177 163 138 123 119 97 70 67 108 105 113 132 156 144 57 26 39 47 56 43 37 28 20 17 19
203 163 146 127 130 125 98 101 110 119 102 120 125 138 150 126 40 33 33 41 58 52 41 41 33 33 46
150 140 139 116 104 102 97 114 124 125 106 155 136 146 110 133 70 11 5 28 44 45 40 46 43 30 23
56 56 59 48 60 117 115 119 127 132 123 110 110 103 112 115 80 -10 -0 36 45 68 55 37 35 33 31
100 82 80 91 58 117 140 149 144 95 119 141 129 107 59 135 88 154 143 67 42 39 51 40 40 55 46
59 69 77 93 112 124 131 163 149 178 184 126 197 177 189 177 107 124 163 157 158 130 93 45 41 42 49
66 79 98 112 109 117 126 142 181 192 174 160 226 200 168 -1 16 98 165 181 163 131 32 51 36 32 22
75 100 118 125 115 121 127 139 154 171 175 139 130 91 120 96 70 93 77 168 115 28 16 19 59 93 52
92 102 100 115 124 128 129 113 97 109 133 124 106 125 130 159 157 198 183 130 106 86 70 63 49 14 -12
106 109 118 126 139 122 126 113 123 111 119 110 108 114 161 164 149 188 163 134 154 141 72 107 93 61 42
108 143 158 153 134 115 118 127 148 157 157 158 132 101 100 157 226 232 242 216 203 149 121 109 161 133 105
121 154 168 167 110 150 158 162 176 179 201 198 172 164 160 202 185 159 101 121 100 123 129 105 86 146 60

GFSFLT2_con_3kmhel_027.txt.gz
Helicity
204 185 181 152 144 156 142 160 167 130 137 140 141 110 101 103 86 71 65 60 73 61 57 59 55 45 53
193 181 173 142 141 149 149 165 180 135 104 108 106 101 95 77 67 52 60 78 70 73 77 58 49 49 54
191 174 155 149 160 166 174 178 181 109 91 90 67 57 60 55 62 71 66 65 72 72 58 48 47 45 43
195 191 167 142 175 166 181 169 161 129 102 40 31 49 63 55 62 58 57 58 58 62 61 49 42 48 39
203 211 183 173 180 183 178 145 125 125 98 102 125 152 171 108 94 62 58 61 68 67 59 53 42 43 36
201 207 203 181 180 152 148 126 111 78 112 116 115 151 159 135 61 37 46 47 44 48 53 48 35 42 41
217 203 192 147 147 137 129 138 140 134 122 134 128 154 138 120 32 25 19 11 25 39 46 55 50 42 47
177 160 151 125 124 120 115 139 149 135 124 156 124 135 109 138 69 -3 -12 1 26 43 52 55 66 49 36
81 60 47 39 57 122 136 143 136 132 137 135 154 127 132 133 68 -3 -2 23 27 39 56 66 67 41 51
95 67 69 83 60 132 169 179 168 133 160 193 175 139 99 178 149 168 148 60 31 27 37 52 55 100 89
52 61 70 88 110 133 143 195 188 231 223 116 245 200 231 235 225 186 170 158 164 146 81 47 27 44 39
47 52 65 89 107 120 127 145 186 210 148 119 233 210 207 218 216 222 211 211 193 165 133 71 0 -13 -17
34 59 92 121 118 127 128 124 143 164 156 133 138 143 185 226 252 254 147 179 142 73 59 56 56 -7 -19
49 66 83 102 125 128 129 112 104 119 132 125 126 151 191 221 222 254 221 198 157 127 130 114 98 74 40
51 60 81 101 124 125 147 152 156 141 144 140 145 177 223 216 201 241 222 197 197 170 100 128 125 111 114
65 85 106 124 131 156 159 170 180 183 184 185 165 140 142 174 205 226 237 261 210 176 149 162 177 127 118
82 106 120 144 119 180 177 183 199 205 231 216 192 175 162 175 199 170 88 171 124 127 156 112 93 123 62

GFSFLT2_con_3kmhel_030.txt.gz
Helicity
189 185 179 143 134 143 140 150 152 92 93 110 131 120 102 91 84 83 66 63 57 53 57 74 76 77 67
173 172 150 139 132 135 131 130 139 97 90 117 121 99 84 74 80 56 60 54 53 46 49 49 45 40 35
170 151 143 134 147 137 148 163 166 89 75 88 82 81 79 74 61 69 55 42 34 30 29 30 21 15 12
167 172 158 122 153 146 155 172 156 131 98 67 63 79 63 53 52 48 40 38 38 35 33 32 33 32 32
169 175 158 147 152 172 184 158 131 124 122 124 135 187 195 117 79 45 49 52 42 34 32 32 36 42 41
170 165 152 156 190 169 170 145 101 113 147 152 135 180 190 162 62 36 29 19 20 29 32 34 40 43 48
159 141 170 179 183 179 122 115 132 157 138 140 152 185 165 149 52 40 22 20 32 41 40 41 48 49 51
160 167 164 133 130 111 97 123 151 139 141 181 156 168 151 167 96 14 13 28 41 37 37 48 62 74 72
108 105 87 58 56 80 95 102 112 135 152 164 186 177 155 154 80 30 42 29 19 3 -20 -45 -63 -51 32
142 98 79 67 36 82 123 138 150 132 142 194 196 160 143 247 201 219 166 100 46 24 14 -4 -21 -72 -33
88 82 69 61 76 93 110 174 164 208 219 151 270 215 244 287 269 237 211 178 168 132 71 27 -2 -16 86
58 55 54 67 83 100 115 138 184 202 171 157 244 236 243 235 239 213 217 215 174 141 120 73 26 20 9
38 59 76 91 98 99 104 121 141 177 172 147 176 166 215 260 277 258 177 186 161 100 106 138 117 62 27
45 53 59 77 96 101 109 111 117 156 162 156 151 182 226 252 241 250 218 245 195 192 162 137 119 125 122
39 47 59 69 94 102 130 139 159 164 161 149 166 194 220 227 223 222 197 179 242 232 126 129 122 140 159
58 66 73 80 86 112 129 141 147 164 177 190 177 152 147 177 158 213 204 206 221 198 157 143 136 123 128
77 83 87 107 86 131 137 147 154 177 220 218 200 170 184 200 225 135 188 215 147 127 170 139 151 172 118

GFSFLT2_con_3kmhel_033.txt.gz
Helicity
153 131 118 127 143 137 119 114 114 93 112 126 138 128 119 97 82 58 47 55 58 64 60 71 71 83 83
137 117 119 130 116 110 119 119 112 93 113 137 123 108 85 60 48 50 57 50 46 42 44 41 55 50 53
104 117 122 105 105 105 101 105 116 85 105 107 86 76 56 50 59 52 36 39 36 38 38 35 32 30 32
106 122 122 102 106 100 111 108 115 108 110 65 53 49 30 45 51 47 53 56 55 53 48 46 37 30 27
148 139 125 110 117 125 112 110 118 113 103 73 83 96 114 113 91 71 81 75 70 71 61 50 47 41 29
142 137 125 126 125 122 122 123 155 74 89 65 82 109 118 101 57 56 49 47 47 41 42 45 56 63 55
144 135 127 114 126 127 112 129 105 85 70 81 92 91 81 81 54 48 41 31 33 44 50 64 72 65 70
148 126 135 131 128 121 92 71 68 71 56 84 71 79 77 83 57 18 5 28 44 52 60 59 56 66 53
139 145 132 101 91 87 68 64 61 60 64 58 85 69 77 92 54 41 54 44 34 28 16 21 32 40 96
131 129 116 80 43 59 58 57 60 59 90 104 92 70 44 106 91 118 106 71 50 46 48 42 30 63 83
116 102 67 55 54 54 54 66 77 111 124 101 145 99 141 165 114 125 131 144 119 107 61 46 51 60 93
41 40 39 42 49 51 53 63 86 128 118 114 205 166 190 191 217 154 154 169 126 114 118 74 46 48 40
31 34 36 39 46 46 54 53 65 108 133 119 161 163 201 250 253 241 165 137 115 97 111 106 85 71 18
37 38 38 47 55 53 58 49 50 64 87 114 124 154 216 231 214 256 205 189 181 183 146 129 97 94 88
39 40 42 45 54 57 58 52 68 98 104 102 108 147 206 204 201 224 172 175 192 171 121 108 117 106 92
40 44 46 47 47 53 60 73 100 114 125 135 134 131 135 140 132 165 171 159 181 154 138 92 180 142 109
47 51 50 52 45 58 67 90 133 130 157 165 159 135 133 129 148 107 156 198 132 134 161 156 147 192 121

GFSFLT2_con_3kmhel_036.txt.gz
Helicity
475 505 363 316 166 107 103 78 85 66 73 84 73 76 88 84 84 99 105 116 90 60 51 63 77 79 81
400 278 218 147 114 100 109 117 108 87 94 85 89 111 103 90 118 110 99 64 46 44 52 64 59 52 48
286 227 207 177 139 124 104 115 112 83 72 97 121 115 92 104 100 71 50 45 48 55 55 49 43 42 41
217 192 148 112 101 127 133 120 111 99 106 109 119 98 81 82 57 42 43 53 65 67 65 62 53 47 45
155 133 117 135 134 157 143 119 121 106 141 166 143 110 88 72 54 46 58 76 76 74 73 63 59 53 55
134 145 130 149 159 143 146 146 153 119 167 146 106 91 94 76 44 44 48 52 66 72 74 77 74 68 73
110 127 158 153 187 173 151 160 140 101 115 107 72 65 67 64 25 34 40 49 55 64 76 86 83 77 77
166 156 174 169 161 148 120 119 86 67 46 61 57 57 51 53 25 27 27 40 52 59 74 85 91 86 79
159 168 149 126 123 126 98 77 58 48 48 66 52 55 58 73 49 35 61 56 54 51 56 64 69 74 102
159 140 110 83 56 57 56 63 65 73 66 92 63 55 58 76 75 86 70 48 43 50 60 60 67 135 148
77 60 43 39 53 67 74 93 100 123 80 79 118 86 139 166 107 94 83 80 76 77 55 42 56 97 146
17 20 29 39 48 63 64 72 91 107 92 92 186 140 160 174 176 117 103 105 98 89 104 74 44 51 54
24 30 38 44 43 49 59 59 73 108 131 107 139 148 190 225 228 198 105 121 109 112 111 118 101 94 72
33 40 43 48 54 54 56 58 52 60 85 125 128 128 160 181 183 204 195 199 147 152 148 128 109 112 110
44 47 49 51 57 56 56 58 73 67 69 75 98 125 159 171 182 199 177 176 159 147 120 144 158 140 138
48 50 53 57 58 59 62 69 72 77 83 88 89 107 125 156 118 189 184 157 159 151 129 125 147 124 120
55 56 58 62 58 63 61 71 77 84 92 102 106 104 102 95 160 127 170 172 158 135 146 130 119 123 100

GFSFLT2_con_3kmhel_039.txt.gz
Helicity
451 606 585 447 396 291 279 232 200 141 146 123 85 58 52 42 52 71 78 93 98 90 92 94 92 93 99
420 392 388 330 228 214 189 184 191 149 121 106 80 63 41 47 78 79 78 77 72 78 89 84 66 64 63
361 324 247 203 186 190 175 161 134 65 63 76 74 73 78 88 84 76 71 65 63 67 61 53 50 51 50
282 278 215 175 179 151 134 108 124 128 99 105 84 89 103 96 81 67 55 48 51 54 55 57 59 54 51
228 170 134 125 112 133 155 162 143 114 125 131 132 140 133 109 77 51 50 62 68 68 68 66 58 51 42
125 117 107 122 142 170 190 186 160 91 169 156 127 147 121 96 41 37 47 50 56 62 62 61 54 50 45
139 149 160 202 236 200 168 167 153 134 163 138 130 114 78 69 26 30 33 39 43 47 50 52 52 50 43
159 163 186 192 186 179 147 129 97 97 91 59 84 65 70 61 27 19 17 23 38 42 48 57 59 56 54
153 143 134 124 120 131 90 63 56 51 66 59 75 57 61 79 60 -2 24 41 39 37 49 47 50 41 76
167 133 91 70 30 47 54 67 64 58 67 88 95 76 37 81 63 103 85 43 37 35 35 40 48 105 140
93 54 40 43 52 60 70 90 86 92 107 77 101 116 130 144 119 126 117 102 108 108 69 47 38 61 124
37 40 44 53 58 58 63 69 81 88 83 87 136 112 122 136 175 177 144 120 110 114 119 79 35 36 47
40 47 54 62 70 64 56 71 88 98 95 122 157 139 189 227 235 179 86 136 108 107 114 110 107 99 80
39 47 54 66 77 78 72 75 72 69 85 91 142 187 203 227 227 237 199 201 170 157 156 135 138 152 148
47 54 64 73 80 85 87 90 94 82 72 86 94 125 179 205 214 241 211 206 200 195 182 165 202 191 176
53 65 75 83 77 77 86 95 92 93 86 86 91 103 132 166 166 210 236 238 209 185 157 136 146 123 124
58 69 77 76 65 81 81 91 96 92 100 107 120 126 117 131 149 139 193 222 201 159 181 175 164 149 123

GFSFLT2_con_3kmhel_042.txt.gz
Helicity
439 439 430 377 355 332 281 253 185 138 83 85 112 123 121 87 82 81 64 71 82 84 85 95 105 123 115
365 376 375 348 262 240 218 187 169 111 107 116 117 106 89 89 94 76 74 87 80 79 88 105 116 122 116
266 291 293 294 260 217 177 164 139 86 88 117 129 107 98 81 72 66 75 84 85 95 105 101 88 71 60
228 235 251 247 216 184 167 141 134 107 139 142 93 100 91 102 94 99 103 94 88 81 68 53 45 40 39
221 178 196 191 144 124 139 152 167 139 153 138 145 150 116 114 108 95 84 71 58 48 40 33 28 25 25
142 148 131 128 157 166 186 181 167 120 198 141 157 146 143 156 75 47 39 34 36 37 35 31 26 25 20
119 117 133 168 177 178 177 178 165 148 162 111 155 118 123 74 26 22 24 28 33 33 31 29 29 28 24
133 147 172 190 195 174 152 127 104 102 77 62 78 40 54 80 53 20 20 31 42 53 52 49 46 45 42
129 125 120 114 102 108 87 62 53 63 84 66 63 49 67 90 54 34 47 66 66 50 51 51 57 60 74
146 122 90 72 14 41 84 90 86 80 100 86 96 57 39 60 75 100 85 59 49 56 50 47 52 96 112
97 69 36 28 39 46 65 106 108 111 111 72 87 88 83 87 95 120 89 86 81 78 35 42 53 73 102
87 54 41 39 36 44 54 57 74 78 91 115 103 93 81 79 102 111 92 78 86 105 90 61 42 39 35
64 53 43 34 42 51 52 55 63 71 76 106 129 113 136 143 140 108 74 114 94 89 123 136 129 132 108
56 47 42 45 57 64 73 65 71 74 95 96 127 155 135 165 182 151 132 136 160 156 171 172 189 202 188
59 53 48 49 54 57 64 67 80 78 75 99 109 121 135 135 147 176 141 142 181 189 161 150 149 163 169
59 57 60 65 67 70 79 85 90 92 87 88 97 112 118 127 138 153 152 171 173 185 205 182 141 140 160
66 71 72 78 58 80 82 88 96 99 99 101 109 121 124 127 123 102 141 130 142 127 156 181 204 190 182

GFSFLT2_con_3kmhel_045.txt.gz
Helicity
342 356 404 353 482 344 250 265 267 145 109 72 94 99 90 86 93 80 80 91 101 104 105 93 98 97 114
244 284 313 283 303 320 276 224 169 112 109 131 116 91 79 78 81 77 96 108 108 102 103 97 101 103 112
164 199 215 229 232 166 146 146 131 99 79 79 72 112 99 100 98 96 107 110 100 96 101 96 99 93 91
161 162 150 171 194 209 174 151 118 106 117 131 137 131 116 128 135 154 138 124 109 106 105 95 83 72 63
105 148 175 166 145 151 158 164 140 152 178 158 171 151 138 129 131 134 127 115 101 88 68 53 41 35 35
125 131 145 161 143 138 156 179 159 154 187 146 173 164 181 172 110 82 61 43 32 30 30 30 28 26 22
117 124 131 142 148 156 157 175 174 165 160 91 139 116 98 66 11 0 8 20 34 40 36 32 31 34 32
113 109 123 138 151 154 158 149 120 91 67 72 97 82 68 70 10 15 47 65 69 77 76 65 57 54 46
139 144 147 139 129 155 138 120 87 83 69 82 80 65 85 84 83 101 102 92 73 77 79 73 67 64 74
146 142 135 116 93 76 78 98 90 86 85 88 75 63 80 77 105 93 101 71 63 65 62 57 57 81 75
121 117 106 91 66 47 52 83 94 89 83 74 84 92 69 43 38 103 110 97 129 104 59 39 24 34 68
117 116 110 77 52 45 44 54 74 102 95 96 87 107 83 58 34 70 85 103 105 134 142 67 27 28 31
128 104 71 45 34 37 44 49 56 73 69 102 107 90 114 99 76 45 44 64 97 78 110 138 126 119 118
97 73 47 47 55 53 58 58 58 65 63 80 99 113 90 110 116 81 91 113 89 109 112 116 123 146 155
87 76 59 61 67 61 65 70 67 69 80 78 82 93 115 116 117 139 131 125 123 102 105 91 90 105 130
79 67 73 81 81 73 77 84 83 82 83 86 74 73 90 111 108 145 135 127 120 122 138 104 51 83 117
81 79 81 83 64 83 86 87 92 93 99 101 102 91 77 88 115 72 128 117 144 141 140 100 41 75 117

GFSFLT2_con_3kmhel_048.txt.gz
Helicity
186 146 157 220 331 358 380 270 236 122 104 150 108 77 55 69 94 100 94 86 84 101 77 74 85 79 81
172 140 230 190 268 220 258 185 155 121 66 83 70 81 93 100 75 72 73 85 81 86 91 87 98 97 93
122 178 170 225 177 208 134 122 116 76 88 89 87 74 59 77 79 75 77 67 81 97 98 96 99 113 107
100 124 134 113 102 139 147 136 124 110 86 66 89 108 98 109 106 105 148 153 129 118 111 101 98 91 95
153 124 123 135 124 144 147 151 114 108 116 133 139 131 125 116 117 114 127 132 122 110 96 82 73 68 65
120 127 145 165 149 130 132 142 145 142 169 147 143 149 159 168 128 110 92 71 55 50 44 37 33 29 27
104 126 137 146 147 142 144 157 158 166 164 124 169 153 153 106 54 31 28 23 19 23 28 33 36 32 26
124 136 144 149 159 157 154 160 163 150 153 111 115 91 91 74 21 18 33 55 80 81 79 65 52 51 49
169 161 151 150 148 167 168 183 151 138 79 78 85 74 74 84 94 108 159 129 87 79 67 58 52 47 54
140 142 144 139 131 137 144 159 137 133 73 77 72 72 114 113 128 139 114 95 83 71 59 48 50 82 82
127 131 136 133 127 112 87 107 112 92 66 80 78 84 83 75 70 71 89 115 114 107 67 55 61 63 97
138 144 150 146 130 94 68 60 70 89 72 82 104 113 112 72 30 71 116 122 129 123 157 124 62 59 47
132 131 121 103 90 69 64 55 52 68 71 84 103 101 109 104 76 44 25 89 120 123 118 134 143 158 132
116 108 101 102 104 83 80 66 78 87 66 61 58 84 89 104 98 73 81 69 78 99 109 97 115 128 140
113 107 99 95 90 92 83 86 98 110 116 120 77 69 79 82 82 95 98 88 91 77 68 70 75 97 102
101 105 101 97 90 92 99 110 95 104 110 123 124 96 79 85 51 87 83 90 96 103 118 109 98 112 124
117 114 107 97 78 89 106 106 107 113 115 114 138 119 76 74 94 41 92 95 97 125 158 165 142 121 114

GFSFLT2_con_3kmhel_051.txt.gz
Helicity
156 173 193 185 190 248 272 319 293 185 112 98 91 103 75 65 49 43 74 61 65 64 65 77 76 77 72
172 134 191 189 185 177 221 192 200 184 130 129 99 101 76 65 65 86 81 71 98 95 80 70 79 89 90
116 117 103 110 174 168 170 161 122 90 66 55 67 88 99 71 62 90 112 92 71 64 68 83 86 100 101
79 112 67 108 117 110 91 84 80 79 77 70 81 105 129 147 124 104 93 89 104 109 104 89 87 84 87
112 103 99 120 113 144 153 130 121 113 111 115 123 114 105 107 98 81 76 87 91 84 81 79 69 62 65
121 139 147 145 144 145 141 132 119 111 127 131 126 104 114 123 98 101 104 94 69 56 46 44 38 27 21
151 166 176 168 175 188 179 169 149 140 140 128 133 131 133 132 106 86 52 30 19 16 14 11 14 15 15
164 168 172 167 188 190 184 176 163 151 164 120 122 152 136 88 28 16 22 27 26 36 46 52 51 41 29
193 193 182 172 159 189 188 208 177 172 158 131 135 98 86 68 69 63 74 133 113 88 74 70 57 43 49
133 139 140 141 163 162 166 176 166 182 128 114 104 69 108 84 109 113 115 143 110 83 81 75 60 76 81
109 119 134 147 159 162 139 152 159 136 92 93 93 86 77 73 75 86 80 71 80 88 71 66 63 67 88
108 121 133 137 133 130 115 102 98 106 77 93 108 119 113 95 78 95 104 83 87 94 105 92 71 67 89
106 112 114 112 105 105 102 89 81 85 77 100 118 104 107 110 114 108 69 96 147 157 158 157 175 173 111
109 109 108 112 116 107 108 95 79 101 84 81 90 100 96 104 102 99 107 96 109 129 138 147 148 155 159
113 109 113 112 106 96 101 101 105 104 109 142 129 114 108 96 96 103 109 100 88 81 79 71 85 99 114
113 123 126 124 110 105 113 129 98 104 109 135 150 143 118 108 85 117 100 86 86 89 93 84 73 108 131
129 143 145 134 100 105 105 129 102 110 117 140 156 166 129 126 118 64 129 106 107 108 123 132 106 116 119

GFSFLT2_con_3kmhel_054.txt.gz
Helicity
161 158 124 80 125 121 156 123 111 171 271 223 155 84 37 44 100 90 75 30 45 53 41 57 48 49 45
146 161 124 105 84 98 119 128 136 209 233 212 196 185 137 96 69 67 88 105 80 43 77 88 94 86 91
110 99 78 98 70 96 87 109 120 107 89 77 69 52 51 61 77 56 55 96 126 100 87 85 84 82 79
86 82 84 87 86 87 81 94 106 87 68 64 68 71 101 140 143 147 152 132 99 78 82 88 101 92 79
82 84 94 100 105 95 95 97 101 103 95 104 112 115 122 126 112 90 80 84 79 75 70 71 85 95 95
101 114 117 122 126 131 132 135 129 125 127 129 111 104 111 114 93 83 81 82 78 78 78 83 74 69 73
114 120 123 128 138 142 146 142 135 128 106 93 128 108 124 124 116 108 100 94 87 70 51 42 44 38 27
123 123 119 122 130 129 128 127 120 121 130 110 88 126 139 125 112 95 68 55 42 36 33 37 45 50 46
126 122 123 122 104 132 120 142 120 128 138 127 112 122 131 98 86 110 133 87 93 99 81 67 67 54 50
87 93 96 102 120 110 120 126 120 133 113 109 113 102 121 73 73 76 74 86 104 106 88 60 69 74 56
80 86 90 99 103 106 100 112 129 126 107 113 114 127 100 80 69 69 74 73 81 65 66 67 60 62 73
82 76 73 74 82 88 85 93 103 115 88 117 117 135 130 107 97 107 112 103 99 73 89 75 82 73 61
75 67 68 72 75 85 91 93 89 98 96 125 133 121 113 120 118 120 104 121 145 153 157 158 140 126 91
78 77 78 93 103 105 113 118 106 124 107 96 105 124 107 98 107 99 118 122 124 133 123 123 124 126 111
96 93 92 104 104 113 117 114 110 122 119 158 138 114 119 122 131 142 132 121 143 131 99 88 88 101 103
102 106 108 114 123 126 130 144 131 114 112 135 136 125 116 95 135 141 134 128 105 112 122 99 78 93 118
116 111 116 125 108 142 146 142 152 137 126 147 151 144 118 113 110 71 130 120 122 121 141 150 125 107 105

GFSFLT2_con_3kmhel_057.txt.gz
Helicity
149 107 98 99 111 84 90 94 109 145 199 262 377 343 247 124 60 90 84 118 83 41 25 90 67 87 52
106 100 94 65 65 87 77 64 75 91 90 169 171 167 154 155 138 114 89 80 89 104 99 58 78 92 89
78 66 66 51 49 72 62 75 78 61 46 22 38 51 59 59 58 43 76 78 101 128 131 98 72 64 63
68 71 62 55 60 70 81 78 80 91 86 82 83 93 101 104 117 142 149 135 122 101 81 66 72 78 78
79 79 79 80 82 74 74 72 86 95 97 108 114 109 109 112 112 118 107 95 89 77 74 74 69 69 77
85 92 93 85 86 90 90 88 84 98 83 86 95 107 111 102 86 77 78 82 85 83 85 86 97 98 94
93 98 97 92 85 82 89 84 82 81 54 71 97 101 115 114 114 109 107 103 104 107 112 108 94 98 109
97 90 85 78 72 77 78 71 64 69 69 82 95 110 103 90 91 93 75 59 52 46 39 35 36 33 37
91 85 79 74 66 79 69 70 76 85 88 82 112 129 112 94 76 87 98 113 47 48 65 64 51 57 58
70 78 82 82 89 67 70 67 73 75 90 83 112 129 132 93 75 61 66 74 82 62 66 79 72 71 70
67 75 80 83 81 79 76 75 85 87 107 103 127 127 106 95 80 78 59 71 72 66 59 57 68 79 78
72 75 76 78 80 77 73 76 84 86 84 110 134 127 113 106 106 96 91 80 53 62 80 82 73 69 61
70 70 74 78 74 73 77 79 81 90 94 118 112 100 106 114 102 91 98 98 90 89 86 85 92 94 92
69 72 76 82 82 85 89 97 102 129 131 117 108 116 107 102 97 102 90 83 87 90 97 86 82 84 89
73 74 77 82 86 95 96 107 117 126 132 151 144 107 97 108 116 119 100 86 84 73 70 78 77 81 87
78 81 80 85 91 100 108 121 127 125 112 120 126 138 132 102 113 104 81 71 67 65 66 68 72 76 70
82 85 89 95 94 105 114 122 117 112 101 104 117 141 138 127 108 86 112 62 63 68 77 89 103 93 57

GFSFLT2_con_3kmhel_060.txt.gz
Helicity
168 140 102 84 80 72 74 95 96 126 118 196 297 322 279 193 165 140 181 170 77 65 71 83 113 132 137
130 110 80 59 53 47 56 74 77 107 119 146 191 180 152 119 107 71 68 90 133 138 128 140 132 154 143
95 63 57 68 57 62 75 76 77 84 98 113 111 98 93 98 114 115 103 106 103 120 115 122 114 98 66
58 69 76 74 70 80 75 79 88 89 93 101 107 107 108 103 114 131 137 140 123 117 101 92 85 73 72
77 75 79 78 77 67 69 82 96 109 111 108 118 114 110 99 112 116 124 111 103 92 85 78 74 74 68
85 95 96 88 84 90 88 90 82 88 96 84 93 98 94 101 124 119 119 111 105 98 93 94 91 89 83
103 108 98 103 100 81 83 77 77 74 58 70 84 80 84 84 94 100 105 105 115 115 109 103 98 98 89
109 102 98 86 78 74 77 74 61 64 64 66 83 82 77 71 92 99 131 96 71 72 68 64 57 64 68
85 81 75 69 65 70 78 82 78 80 77 76 93 96 75 78 91 91 97 94 96 59 64 70 64 54 49
63 60 62 75 77 74 84 76 79 77 93 85 105 113 101 106 90 88 82 79 78 83 82 69 68 83 69
66 68 70 75 79 84 82 78 73 70 112 92 96 96 101 111 112 103 85 79 76 69 54 49 49 58 80
78 77 76 76 75 72 71 69 70 67 79 104 105 107 113 122 122 112 109 107 94 77 84 77 60 50 43
75 76 75 78 74 70 69 72 68 71 79 87 96 99 113 124 114 96 107 117 107 94 92 82 78 85 86
73 75 76 77 78 84 85 88 86 87 118 111 109 111 114 105 100 93 87 109 104 93 103 100 86 77 78
79 80 83 87 90 93 91 89 84 90 101 130 130 115 106 109 109 102 88 94 97 89 85 90 91 85 75
84 87 90 96 100 100 94 92 90 99 113 133 142 144 136 121 119 108 87 90 86 86 90 87 78 80 64
89 94 101 103 101 98 101 103 103 107 117 137 148 155 156 132 110 120 104 89 101 83 87 89 64 71 54

GFSFLT2_con_3kmhel_063.txt.gz
Helicity
142 127 110 110 78 51 63 66 60 97 79 100 151 196 203 239 243 227 194 124 86 23 -8 64 32 148 155
168 128 92 64 32 46 46 68 67 74 79 89 112 136 147 153 142 121 114 110 77 41 67 82 72 125 164
104 76 45 38 67 70 69 77 69 61 68 76 92 108 103 95 102 115 115 99 82 84 90 96 103 110 107
60 51 61 71 72 82 88 76 88 94 79 75 84 88 100 103 99 97 108 111 106 104 107 102 109 102 92
70 68 71 68 88 84 90 92 88 107 106 102 98 106 84 86 96 111 124 119 116 104 95 99 99 98 101
88 85 101 83 86 109 99 105 108 77 98 95 96 99 101 104 110 91 89 98 108 109 114 115 111 104 98
119 149 146 135 103 96 106 89 87 82 77 84 93 88 83 79 95 82 81 86 89 101 110 108 109 108 104
143 157 151 129 103 91 83 76 71 73 81 68 77 73 70 66 95 80 91 97 102 80 85 87 91 86 85
111 116 103 94 83 83 83 86 78 86 88 81 76 78 64 66 82 74 78 84 93 103 76 94 105 96 86
85 86 80 93 85 74 83 79 80 81 102 91 96 94 88 85 88 83 93 84 88 76 81 87 83 93 89
72 77 84 87 85 94 90 85 77 78 104 101 92 89 92 92 96 96 103 102 99 97 84 66 58 66 99
87 79 91 104 95 89 92 79 79 76 82 119 102 109 105 103 106 129 134 120 114 115 109 89 74 60 39
84 96 105 113 106 86 77 67 73 77 81 107 103 98 112 120 123 122 115 138 93 100 116 120 110 101 103
95 102 110 115 98 94 100 97 97 100 94 133 114 110 110 119 122 113 136 134 128 130 121 125 121 118 110
103 105 103 106 107 105 109 110 109 110 109 132 131 139 133 126 119 134 137 121 116 116 129 107 100 111 111
115 115 115 123 118 117 122 119 114 111 118 128 156 166 157 124 125 139 130 120 111 107 98 115 99 94 116
130 125 128 127 113 126 125 121 118 121 123 137 164 191 180 169 165 100 172 140 129 121 140 142 128 107 111

GFSFLT2_con_3kmhel_066.txt.gz
Helicity
171 161 142 134 89 69 63 67 54 55 66 66 92 117 128 153 169 176 176 169 161 127 141 109 111 181 153
136 123 115 87 55 37 38 44 53 54 56 79 91 101 120 122 130 132 126 123 113 82 47 49 12 -20 38
107 74 64 36 37 54 55 53 47 59 69 75 87 94 104 107 112 123 124 121 116 110 81 59 15 11 33
82 67 53 58 65 96 107 90 90 87 88 55 79 89 99 99 108 112 111 110 100 97 104 109 112 116 96
93 82 76 73 92 98 101 91 108 106 89 90 80 84 76 92 109 108 104 101 88 71 65 68 81 97 94
89 75 100 86 108 102 87 103 112 89 80 77 79 78 77 72 76 73 73 71 71 70 68 67 70 75 83
106 111 123 101 98 98 96 86 83 66 71 77 78 76 69 65 73 65 67 82 76 64 71 80 77 73 73
127 129 124 116 105 78 71 68 69 78 77 81 69 64 56 57 69 76 72 80 84 87 67 71 76 78 77
90 91 91 86 77 85 87 95 87 87 84 77 65 65 59 60 59 58 58 60 73 83 100 98 101 97 110
65 69 75 76 78 82 83 95 89 87 71 85 80 79 78 69 76 74 74 71 88 96 88 77 83 100 102
60 71 74 74 80 95 97 96 100 88 83 87 91 79 88 84 86 79 83 87 94 92 89 94 95 86 111
70 73 78 87 96 107 100 93 90 87 78 94 99 112 108 96 90 90 84 82 95 108 111 103 94 77 61
74 74 85 93 107 105 85 80 73 79 77 101 121 108 111 120 102 96 98 131 118 134 145 136 128 120 115
78 84 95 118 101 95 100 100 110 102 83 106 121 132 118 100 91 102 145 133 130 132 134 125 134 123 114
88 92 88 99 108 106 112 116 117 120 115 115 119 131 144 156 122 129 132 141 160 147 158 132 117 104 115
121 115 102 114 126 125 128 136 125 122 111 101 119 126 138 119 136 134 125 151 150 145 129 125 109 112 134
152 142 125 132 111 120 123 127 117 118 117 114 122 156 151 125 141 87 136 159 169 136 159 158 141 105 105

GFSFLT2_con_3kmhel_069.txt.gz
Helicity
193 191 178 158 126 106 90 81 80 63 55 60 76 108 129 140 156 180 179 163 175 174 160 182 176 189 186
184 170 158 121 96 69 58 44 56 50 57 79 74 94 97 123 144 146 139 129 135 150 141 111 92 71 37
139 124 95 68 43 47 51 64 56 67 75 92 92 102 123 118 122 138 140 135 123 110 117 111 90 95 101
97 86 77 47 56 81 92 92 80 84 92 103 103 102 120 117 121 123 132 126 117 101 78 69 76 55 52
86 91 78 76 72 76 84 86 80 93 86 82 80 83 93 98 102 101 93 87 88 88 85 78 79 82 88
83 84 86 94 88 75 84 87 70 78 90 63 80 72 68 63 69 73 70 73 69 70 74 72 70 74 80
77 72 81 80 78 81 84 80 74 61 76 69 74 72 64 68 62 68 66 71 84 71 62 67 73 71 70
88 86 87 84 76 74 72 68 62 73 79 86 79 77 65 63 49 65 69 72 79 89 78 69 68 69 69
72 78 79 72 75 91 90 94 81 95 89 90 88 87 75 76 63 62 66 68 75 82 83 87 93 95 108
73 70 77 74 90 89 89 96 86 107 82 100 95 103 97 77 87 81 81 93 94 94 94 92 84 96 99
59 57 60 75 82 87 86 89 96 86 79 88 96 97 98 94 89 86 111 101 86 85 84 90 91 97 105
62 56 60 72 83 78 78 82 84 83 80 96 93 101 104 107 90 96 81 78 88 96 97 105 107 88 84
59 57 63 73 104 98 86 83 82 82 81 88 108 107 118 108 108 116 105 109 99 131 120 98 106 110 106
69 65 81 107 95 95 102 105 112 99 79 86 102 128 123 116 105 91 97 101 105 120 125 113 123 126 119
84 80 88 105 100 102 109 116 124 135 140 125 113 123 126 133 104 114 116 125 150 152 147 126 110 130 136
94 95 110 122 122 121 124 133 135 139 133 138 133 117 111 89 89 111 105 118 149 154 150 143 101 120 132
119 126 139 147 126 128 123 132 130 128 128 127 130 135 117 96 87 66 127 146 147 138 156 162 134 107 114

GFSFLT2_con_3kmhel_072.txt.gz
Helicity
208 199 196 158 127 111 85 91 80 83 68 59 56 72 90 97 111 130 154 159 169 195 210 213 245 247 223
187 169 135 126 112 102 91 80 80 68 60 60 50 73 71 79 111 119 126 128 149 180 187 168 176 179 165
169 168 148 110 76 67 70 78 74 82 82 86 80 89 98 85 102 108 127 138 144 152 146 133 125 115 107
155 145 110 84 67 78 80 98 90 87 81 100 105 105 106 93 116 121 125 121 125 132 127 109 99 81 79
115 102 99 95 79 88 91 95 86 96 77 81 85 90 106 92 99 91 93 95 102 109 104 89 76 82 89
87 91 88 91 92 89 97 97 79 89 90 74 89 86 85 74 79 82 84 92 88 83 81 84 80 78 80
79 76 83 76 93 94 94 95 86 81 79 84 95 85 77 78 74 85 88 89 100 93 76 75 82 82 78
85 81 86 85 83 74 86 91 88 84 90 104 101 83 79 73 56 79 92 95 101 106 96 84 84 86 90
77 86 79 70 65 88 91 101 87 92 104 106 102 91 84 82 78 96 97 93 88 92 93 90 92 95 101
78 85 89 72 64 66 86 90 86 109 93 121 113 111 111 87 90 105 97 114 112 111 109 98 89 89 87
66 74 74 68 68 73 67 78 93 94 92 108 112 111 112 110 100 100 113 114 106 98 111 101 93 82 83
75 76 76 69 63 68 69 70 77 88 90 103 107 112 116 121 111 124 117 95 102 110 102 122 115 103 91
73 78 76 72 93 89 79 73 76 84 89 101 114 121 124 115 113 125 127 134 99 123 149 93 86 89 98
88 81 83 96 86 88 93 97 112 109 98 97 111 141 138 132 137 133 134 139 133 119 88 87 97 101 110
98 117 109 99 100 107 111 120 120 132 132 128 110 113 115 135 123 127 136 136 135 136 127 101 99 127 131
160 146 120 124 144 124 124 136 132 133 140 154 152 137 128 102 89 111 102 95 103 118 124 126 101 116 134
123 93 118 126 137 155 152 152 142 138 128 135 151 167 163 140 113 64 118 107 127 123 138 163 141 102 120

GFSFLT2_con_3kmhel_075.txt.gz
Helicity
185 203 219 195 169 127 100 82 80 105 99 87 65 77 97 121 93 93 112 140 133 146 198 242 229 197 194
188 204 193 175 129 95 66 78 88 95 82 73 68 89 99 103 96 107 126 136 151 174 175 181 181 193 199
173 199 200 149 122 93 75 90 94 96 89 89 87 97 105 95 89 101 119 136 140 146 173 181 194 202 217
180 187 170 144 120 72 66 93 87 90 93 104 110 118 114 101 104 113 124 122 117 129 141 134 138 145 157
162 156 146 139 98 68 88 96 92 89 87 94 91 100 120 113 95 96 99 107 103 103 119 121 107 91 94
126 132 118 89 87 90 99 96 82 95 94 86 96 94 95 84 71 81 83 108 110 93 101 104 95 87 87
84 66 73 74 99 103 95 92 86 83 85 78 93 87 86 82 77 78 90 100 114 107 89 85 88 86 82
83 68 75 94 101 88 81 99 95 91 84 76 85 81 84 73 73 77 90 99 105 108 98 86 88 97 107
99 98 81 82 83 104 101 103 91 88 85 87 88 86 84 83 98 112 109 106 101 100 95 92 96 102 110
102 105 95 82 68 78 85 100 105 103 86 98 100 104 95 92 95 104 108 121 120 117 105 103 103 99 101
70 76 75 77 79 81 84 92 100 85 83 101 108 110 107 101 96 101 111 111 110 107 119 110 109 96 91
75 71 78 67 58 70 78 83 87 89 90 98 112 115 113 113 108 123 119 106 104 111 111 126 135 110 86
65 76 74 61 77 78 80 82 77 73 83 98 106 112 113 108 113 120 132 137 122 116 129 123 92 97 112
80 76 83 88 92 86 127 131 99 115 96 101 103 116 110 112 125 119 143 159 158 148 128 86 82 85 88
97 97 104 141 173 178 153 126 120 140 120 111 97 92 100 124 118 130 141 149 153 160 130 108 95 100 96
118 127 141 131 130 142 145 139 138 148 148 133 123 120 107 94 81 132 128 117 139 133 129 124 91 91 105
131 119 133 127 101 133 138 145 146 158 154 153 144 135 128 125 123 56 132 127 138 138 123 113 100 85 99

GFSFLT2_con_3kmhel_078.txt.gz
Helicity
194 196 207 190 170 185 161 153 73 9 70 95 88 101 95 115 101 101 114 127 159 158 198 252 183 151 127
175 180 188 204 184 154 143 103 65 76 107 97 85 95 90 104 109 100 117 119 148 157 174 233 260 232 205
172 173 174 188 177 168 127 99 73 128 98 86 91 93 92 88 97 99 128 126 144 163 178 179 206 210 249
171 172 183 183 174 145 113 89 87 81 85 91 101 108 83 100 108 103 110 113 127 142 155 182 175 159 139
182 175 173 167 138 112 92 78 79 85 74 84 90 91 97 97 92 97 104 108 104 97 108 119 135 131 125
169 150 143 136 136 89 77 82 63 81 85 82 91 85 86 87 75 82 79 94 98 93 103 109 120 121 108
121 108 98 69 95 79 73 76 80 71 72 78 89 83 81 82 86 74 80 89 99 96 101 101 99 99 95
86 70 68 45 86 81 75 88 90 76 73 71 84 80 81 76 78 62 78 90 91 101 98 96 92 100 105
75 75 77 68 81 109 99 90 72 63 72 76 78 82 83 75 91 111 94 90 89 95 96 90 89 98 104
80 80 86 89 77 79 75 71 76 75 63 79 79 92 86 75 76 82 88 104 110 107 95 92 88 90 90
59 58 71 66 74 63 50 66 77 63 46 74 71 76 76 72 72 85 88 89 90 89 92 89 85 95 92
47 29 48 55 52 61 61 64 64 58 59 69 77 75 101 95 80 95 91 84 81 89 97 100 114 104 88
57 56 63 69 96 94 88 82 70 77 98 106 100 112 107 82 87 91 97 99 90 97 97 107 108 98 109
72 66 82 92 97 100 111 100 92 85 109 106 113 113 98 75 90 92 101 107 105 109 115 94 83 94 99
79 94 105 119 121 131 141 142 105 107 117 116 113 111 111 118 116 113 110 117 129 135 110 91 98 112 100
101 104 123 132 122 131 142 125 102 106 110 111 121 127 112 84 63 91 96 111 131 139 141 136 105 124 107
117 149 173 125 101 119 120 118 103 110 117 136 147 146 133 126 109 40 119 121 131 132 126 133 133 108 112

GFSFLT2_con_3kmhel_081.txt.gz
Helicity
158 161 159 168 174 171 141 144 134 129 91 19 59 104 132 133 138 128 118 132 137 166 165 158 161 97 92
156 156 155 160 175 161 156 139 131 97 18 78 99 122 93 92 96 104 101 93 108 118 146 192 243 281 323
159 165 166 168 179 176 170 159 120 96 57 122 105 95 69 72 89 99 104 103 99 108 117 157 207 255 290
176 170 165 162 180 171 153 130 81 67 95 96 88 83 64 83 89 92 93 92 97 108 137 159 154 164 163
186 175 162 164 155 144 142 110 75 76 56 58 61 60 68 76 77 86 89 91 87 90 93 115 141 143 132
171 169 149 141 148 136 121 94 62 66 67 59 66 65 69 74 71 79 75 84 94 95 89 88 101 101 100
144 131 122 108 118 103 83 71 63 66 64 60 69 72 74 74 90 68 72 85 97 87 87 91 98 102 95
92 95 84 70 67 62 63 79 64 73 71 58 62 75 75 73 82 59 72 80 84 88 82 83 88 95 92
88 82 75 66 68 80 82 86 50 58 58 57 57 65 67 64 86 105 80 81 70 78 77 80 88 99 102
62 63 64 54 57 52 61 57 68 51 49 36 56 58 62 62 63 62 71 84 85 80 79 84 78 76 80
62 56 52 58 61 58 55 67 59 62 45 56 60 56 70 69 48 46 56 62 66 74 81 83 80 84 82
63 71 70 66 56 61 57 61 65 70 69 70 75 93 118 106 112 88 62 66 74 75 79 81 88 93 83
50 63 64 62 65 69 87 87 83 75 72 68 72 97 104 97 97 106 99 75 75 75 73 74 82 94 96
54 73 76 69 63 65 78 84 89 84 87 88 102 112 105 88 94 104 94 92 79 75 83 77 75 80 86
78 80 74 78 85 86 99 110 97 97 91 97 105 98 93 98 89 80 68 72 70 76 82 80 83 85 90
76 80 99 101 96 111 112 68 63 80 75 79 85 83 77 79 73 85 80 81 86 84 90 95 86 102 90
91 104 94 102 103 110 85 75 72 75 78 96 99 106 107 110 118 63 102 111 118 106 100 100 99 97 99

GFSFLT2_con_3kmhel_084.txt.gz
Helicity
191 152 126 129 146 166 158 155 159 142 131 101 84 88 121 162 145 132 126 115 117 128 174 165 150 58 41
175 158 146 151 158 156 168 168 142 125 106 103 72 47 102 133 131 111 104 95 96 90 133 165 218 198 95
181 173 173 168 176 176 160 155 148 141 128 77 51 84 110 105 90 99 92 91 84 91 105 131 175 287 333
192 185 179 176 174 175 171 157 147 116 91 59 83 104 92 80 66 79 75 81 90 92 104 124 158 176 231
201 196 183 174 160 155 160 153 123 93 50 51 73 55 58 57 47 65 69 77 85 88 99 125 143 164 175
188 170 144 147 157 155 161 141 109 69 55 64 69 54 54 56 65 64 65 71 81 83 87 92 118 133 139
137 135 135 127 142 132 120 115 93 79 48 41 50 56 61 62 76 67 65 75 84 87 89 88 86 87 89
129 127 119 111 94 74 58 55 61 53 58 41 60 58 61 62 65 59 60 67 79 83 84 89 91 88 92
150 130 101 87 66 60 66 55 44 45 58 66 52 60 54 51 65 66 61 65 68 72 80 87 87 91 87
128 107 81 75 66 53 51 42 56 47 55 60 50 53 51 52 51 58 61 82 89 74 75 84 82 79 78
85 77 66 63 59 66 64 60 73 53 52 57 61 62 64 67 55 57 62 57 50 51 55 65 71 78 75
84 80 55 47 50 59 73 89 78 66 62 75 77 73 70 68 75 96 79 67 59 84 82 76 74 76 70
90 70 71 69 87 79 80 75 75 73 74 77 71 72 75 89 103 110 101 88 89 86 74 71 71 76 81
94 75 97 84 67 70 86 86 86 92 85 74 72 82 91 94 101 93 94 99 91 81 74 74 68 64 71
75 78 84 89 86 73 86 96 94 105 102 84 87 99 93 91 84 82 83 85 79 75 73 69 72 71 74
86 91 105 104 96 96 112 104 93 93 72 75 69 59 55 50 65 83 93 92 90 77 72 74 77 76 74
102 98 109 106 103 119 110 100 89 77 61 72 70 76 82 84 105 65 105 114 108 97 90 85 88 94 93

GFSFLT2_con_3kmhel_087.txt.gz
Helicity
249 214 166 152 150 161 165 173 183 167 152 156 118 108 126 123 162 152 137 132 112 110 93 118 121 154 51
208 181 183 177 165 165 170 171 162 138 138 125 102 119 99 100 119 111 117 105 103 115 113 137 202 258 134
180 209 188 181 187 178 166 160 165 157 151 140 111 71 52 91 115 109 100 86 87 96 84 85 139 294 346
161 223 198 188 189 175 168 169 168 158 148 140 96 55 83 87 84 74 71 72 72 90 77 70 73 161 221
200 214 196 192 177 174 167 172 146 142 124 102 70 59 77 56 38 51 52 62 65 72 78 81 81 111 138
196 184 164 163 174 168 177 174 153 117 112 74 103 79 70 57 61 42 46 55 61 77 84 89 98 112 112
148 141 150 164 171 164 162 161 150 108 72 85 78 53 72 60 48 41 54 63 74 76 84 89 95 102 113
117 132 155 169 151 132 129 122 116 74 65 71 47 34 42 41 48 39 58 63 66 66 77 84 90 93 101
169 174 157 132 122 124 132 131 99 67 49 61 59 71 44 41 55 42 58 53 58 68 76 71 81 86 91
173 161 138 135 126 103 95 96 99 80 53 82 68 55 56 48 46 41 49 69 71 68 69 68 68 71 73
154 145 109 94 96 97 98 84 88 89 55 70 70 75 76 72 41 38 39 54 53 45 39 49 53 64 64
147 123 104 113 112 107 103 106 103 96 86 78 82 84 87 95 78 50 49 70 75 73 76 62 81 77 66
145 130 121 124 118 104 100 108 109 91 78 77 90 102 98 93 82 72 80 92 105 90 92 84 81 76 75
152 138 148 123 95 89 92 80 91 94 88 90 97 101 101 77 86 87 104 98 94 82 80 78 75 72 75
187 173 127 107 104 100 97 117 106 105 106 91 82 88 89 99 82 77 72 76 81 86 82 70 67 68 68
187 146 120 104 115 115 122 130 122 122 134 116 111 83 63 50 58 75 78 85 88 93 77 64 60 59 61
152 134 133 119 110 130 126 130 136 150 124 112 98 70 67 78 84 41 90 105 107 90 81 77 82 86 81

GFSFLT2_con_3kmhel_090.txt.gz
Helicity
203 215 196 168 145 147 134 136 147 149 168 164 155 155 169 159 163 135 131 129 85 89 64 66 87 116 124
182 190 184 167 129 117 127 135 140 134 146 130 132 149 137 136 111 87 93 106 99 102 88 76 101 216 256
201 202 187 172 163 149 138 141 147 149 162 153 142 138 121 110 60 88 96 92 83 73 75 73 84 208 327
171 185 177 164 177 171 167 154 148 148 143 148 143 121 99 48 67 78 70 56 54 49 53 55 52 120 172
157 174 185 170 154 157 157 162 138 144 139 134 120 105 92 62 68 56 42 35 40 34 30 47 41 65 101
185 192 175 161 173 175 186 178 152 139 152 120 109 101 84 80 54 33 20 30 22 30 29 58 59 61 74
149 145 140 147 196 182 167 171 149 131 135 119 101 82 85 61 39 23 29 36 39 35 41 66 81 85 85
120 106 117 139 165 157 160 166 167 133 105 111 71 54 49 32 24 23 38 43 54 52 67 85 96 103 100
134 153 137 122 150 188 176 194 152 102 71 89 52 60 50 42 36 31 48 51 40 53 71 91 97 99 97
154 146 159 149 139 123 136 142 138 112 49 90 68 74 73 48 40 51 52 37 49 57 79 83 89 79 78
136 153 160 144 161 146 104 107 129 85 26 72 73 81 74 58 48 39 37 30 35 41 45 53 47 57 58
145 136 140 150 145 125 119 100 103 51 67 89 81 81 98 87 72 54 41 31 37 41 50 57 71 70 55
139 138 133 167 179 149 145 130 110 97 93 88 67 78 88 107 103 84 69 56 78 94 96 83 83 88 74
162 166 218 223 174 136 118 102 122 117 102 80 86 101 113 101 103 85 76 70 101 96 82 73 66 63 62
202 212 202 200 173 125 116 102 102 93 90 91 94 94 83 88 97 69 78 75 76 68 76 71 64 57 58
220 231 216 204 174 139 131 124 102 107 118 121 140 136 105 67 64 65 64 57 69 75 79 74 70 61 52
244 232 253 212 145 148 124 122 106 115 139 147 149 148 105 57 67 39 70 82 111 110 91 85 76 72 62

GFSFLT2_con_3kmhel_093.txt.gz
Helicity
198 202 215 202 169 143 116 125 119 124 143 126 151 161 156 157 150 149 136 115 69 85 74 67 65 69 135
215 222 208 172 158 121 109 126 125 120 124 127 144 149 151 150 152 127 102 88 94 87 77 92 90 100 162
215 233 216 216 178 139 116 118 130 131 130 133 141 145 135 142 141 94 59 80 82 71 55 68 75 105 164
208 211 200 188 182 153 130 133 122 130 123 127 133 139 138 132 117 56 69 59 74 45 26 44 49 80 108
225 241 226 216 169 127 127 138 125 128 137 130 131 127 119 111 81 52 53 41 40 26 18 29 37 43 77
242 215 199 171 154 150 168 166 145 144 155 133 138 125 110 97 65 54 24 26 18 23 29 26 48 28 62
221 193 181 145 165 167 168 168 153 146 162 145 138 120 84 69 44 32 21 21 21 39 43 49 60 58 61
178 143 142 128 147 154 165 177 185 166 145 131 99 84 67 37 14 23 20 23 29 40 62 74 100 98 107
154 130 103 111 143 205 206 215 172 138 125 121 92 89 52 39 32 25 39 37 34 36 54 74 86 92 107
195 166 146 118 110 153 177 179 156 144 85 127 105 74 66 56 56 56 55 35 43 46 63 72 73 66 77
176 179 174 166 165 139 130 144 157 113 66 111 94 94 75 54 54 35 39 39 37 37 40 41 61 66 65
198 184 173 151 141 158 161 140 115 86 70 91 59 99 111 84 61 53 49 38 35 33 28 36 66 72 59
183 170 154 154 202 210 211 176 156 143 123 93 71 109 92 64 76 81 92 63 60 64 67 66 72 92 102
168 180 207 219 199 184 176 178 161 143 126 79 95 100 75 85 93 94 83 78 80 78 92 95 87 80 77
219 212 204 207 193 186 190 200 151 143 116 113 124 98 89 92 92 83 88 90 87 92 94 83 71 61 61
227 232 216 211 215 195 203 192 171 138 126 117 143 148 127 82 59 85 92 84 73 65 76 71 67 72 60
234 236 220 220 194 202 185 217 177 149 139 145 168 163 148 115 101 48 95 76 84 83 85 98 93 91 78

GFSFLT2_con_3kmhel_096.txt.gz
Helicity
148 176 186 185 181 174 156 133 134 130 103 127 145 141 146 157 159 141 154 127 112 88 67 64 74 85 87
208 186 188 181 186 176 152 128 115 101 94 102 134 135 143 142 145 142 138 119 101 79 84 84 85 88 91
196 228 245 239 240 204 167 135 115 110 111 103 109 103 109 145 160 147 148 109 77 75 77 73 74 76 110
245 260 244 236 249 226 187 153 122 129 112 114 125 131 113 139 138 129 120 81 74 67 60 42 47 61 100
283 290 276 288 256 200 181 165 131 137 129 122 137 152 142 132 119 99 70 60 73 55 32 29 47 60 81
293 261 247 254 269 245 221 192 153 137 153 124 148 131 133 137 107 77 60 66 54 40 28 46 57 65 51
237 251 223 240 236 237 236 203 155 142 159 138 149 144 140 118 88 58 46 41 41 30 37 54 68 78 68
186 221 200 193 216 209 182 196 202 178 178 153 149 151 123 96 57 31 26 28 34 35 45 69 86 84 97
174 163 151 160 209 271 252 236 202 161 166 157 135 143 111 70 42 22 23 27 40 52 53 64 76 85 101
259 214 185 166 127 179 217 212 222 168 137 163 154 132 119 69 61 50 63 59 63 67 55 75 65 58 74
255 253 235 208 197 166 161 211 195 172 119 182 141 146 118 96 68 59 54 70 86 70 71 67 48 62 76
246 232 220 201 186 172 160 166 162 157 146 143 118 131 134 107 74 64 62 55 62 58 60 44 48 65 62
239 213 202 188 223 248 242 226 220 204 196 138 117 101 106 89 92 100 100 59 78 76 78 62 55 64 74
234 211 234 252 243 227 216 218 218 197 186 135 114 131 118 86 98 102 91 111 110 90 80 73 72 83 94
240 253 244 234 220 229 225 228 191 179 170 154 136 127 106 110 100 93 98 120 89 92 103 92 94 79 76
238 255 262 241 236 237 232 214 182 161 179 154 175 194 157 115 87 119 129 113 99 112 111 88 74 69 61
237 244 251 258 218 248 231 220 202 170 158 177 189 191 178 126 163 83 141 118 124 118 90 76 73 81 83

GFSFLT2_con_3kmhel_099.txt.gz
Helicity
399 210 259 172 179 152 154 154 145 124 123 116 114 136 132 127 145 157 151 132 109 95 94 86 71 73 73
205 214 188 180 183 178 153 149 124 112 110 111 100 107 124 111 131 141 127 118 107 95 81 57 63 75 80
221 222 252 217 249 211 187 170 116 108 98 93 100 100 117 130 132 135 125 123 116 90 81 71 58 64 74
392 314 299 295 257 244 237 192 154 144 113 110 109 113 105 97 121 125 116 120 106 91 86 67 48 53 67
373 393 272 293 236 270 230 180 125 157 135 128 140 140 128 148 157 113 105 94 82 95 85 57 47 47 54
307 242 253 316 318 274 239 203 157 124 150 126 140 119 142 171 141 117 99 93 98 94 69 52 45 43 38
327 310 310 259 252 270 267 267 195 131 159 130 148 128 149 148 114 108 91 90 97 83 50 45 67 69 73
286 292 286 225 205 226 206 216 257 195 175 155 162 144 173 156 128 95 83 77 78 65 47 61 63 81 82
216 143 328 139 265 331 302 285 252 206 153 169 160 173 166 144 111 91 77 61 60 55 39 38 63 72 94
233 258 210 172 151 231 295 275 301 215 157 203 194 182 152 132 124 115 104 68 58 57 57 71 73 68 84
285 276 266 254 250 251 223 272 271 219 135 246 199 213 185 144 133 117 104 104 121 93 79 80 69 59 65
301 292 305 305 260 255 247 248 224 161 145 197 156 195 204 188 132 100 105 100 101 77 61 64 59 53 54
210 234 285 280 305 336 317 273 256 243 228 183 176 167 158 142 124 113 134 71 75 81 71 71 53 54 74
233 269 296 304 310 301 292 273 272 243 239 207 172 166 166 133 133 130 126 138 106 89 91 82 67 68 83
279 289 281 285 287 273 267 277 261 241 226 202 191 176 141 125 158 129 141 146 115 123 106 91 79 77 96
217 239 279 260 270 271 261 251 247 219 220 211 225 248 199 156 116 136 163 136 125 103 105 111 103 104 89
206 213 260 244 243 251 242 224 224 211 214 219 230 245 238 166 141 98 157 151 159 131 103 111 106 114 94

GFSFLT2_con_3kmhel_102.txt.gz
Helicity
566 532 622 569 546 413 284 206 144 101 118 122 118 114 125 142 139 136 122 133 125 110 97 85 53 50 55
402 322 320 399 331 222 216 169 139 113 107 116 104 96 111 130 150 133 135 126 122 106 89 91 54 51 51
269 240 250 170 205 249 203 205 164 115 110 100 95 88 88 125 130 133 122 127 128 117 103 86 57 60 50
235 254 241 219 275 297 267 253 223 167 131 115 112 91 81 90 115 117 115 112 107 100 88 73 64 57 38
296 343 397 492 431 379 316 286 212 199 174 173 179 164 137 117 141 120 126 115 104 92 84 89 63 53 30
355 408 328 305 337 540 411 348 229 165 194 162 180 169 146 140 120 120 113 99 93 91 94 83 66 65 44
210 292 354 444 507 387 355 320 271 183 212 162 174 147 150 135 107 112 103 98 89 90 96 73 77 72 55
210 207 260 387 474 428 248 301 266 226 185 172 157 137 168 155 107 115 103 93 76 93 93 88 59 72 63
190 210 264 197 288 462 414 313 322 210 170 179 171 196 182 160 160 115 88 79 81 92 81 63 51 60 72
233 201 150 181 230 221 398 274 328 219 170 272 235 205 183 173 158 147 126 84 79 88 68 54 57 72 82
249 288 285 251 264 248 279 208 324 213 113 340 285 262 240 130 180 148 131 137 113 79 59 64 84 81 85
209 263 305 313 291 276 342 279 211 199 156 255 210 244 278 208 148 159 155 132 122 110 83 79 96 90 72
236 244 321 326 354 384 387 385 388 346 271 219 210 215 204 177 175 161 196 97 94 108 89 78 77 74 68
199 227 271 300 388 420 437 403 400 342 353 268 206 228 210 181 175 191 138 127 107 95 104 87 76 71 59
224 271 244 266 332 335 320 320 336 314 305 286 271 228 187 165 201 166 151 137 115 156 136 111 80 78 63
191 201 200 279 309 347 369 303 331 291 284 275 258 287 247 187 153 187 170 165 164 163 152 131 104 83 67
132 131 186 232 276 291 311 314 319 308 250 241 232 263 245 179 193 129 186 191 211 178 145 131 112 94 80

GFSFLT2_con_3kmhel_105.txt.gz
Helicity
207 223 266 261 395 464 517 626 546 471 366 289 197 135 129 143 145 128 111 103 89 84 72 73 69 69 49
322 277 256 270 358 444 652 640 505 358 289 270 160 135 109 127 132 117 116 95 88 80 89 86 73 66 48
347 289 332 328 381 439 434 404 350 264 210 167 107 68 83 100 105 115 119 103 83 83 80 79 75 64 59
280 309 281 288 282 305 271 274 287 258 206 150 88 66 70 78 82 107 101 88 82 75 68 83 66 56 56
270 319 350 328 240 231 211 264 292 264 235 169 153 127 118 86 103 110 96 80 69 74 62 70 61 62 60
268 278 327 313 329 378 394 442 353 325 257 190 184 168 163 180 139 111 92 83 77 69 61 65 74 67 71
212 249 247 308 407 453 512 440 323 478 453 290 236 162 165 169 115 99 92 83 76 65 67 75 77 85 53
139 143 197 227 308 386 458 434 598 507 440 389 277 172 177 161 113 109 100 82 72 62 83 108 93 72 61
105 129 123 189 268 378 446 563 574 506 361 375 301 241 209 154 146 90 95 89 78 69 86 96 82 58 74
177 137 125 190 213 272 420 405 554 594 518 575 423 338 301 159 167 185 162 98 86 71 87 65 60 55 65
155 187 187 214 256 265 302 362 467 471 362 500 355 239 220 142 244 219 194 164 120 90 76 58 51 61 69
185 160 166 220 256 290 286 274 349 367 275 437 282 281 256 179 108 217 205 170 140 120 121 80 67 79 84
193 199 175 165 256 373 437 418 475 369 238 244 175 257 316 257 230 198 233 138 131 135 115 77 96 100 97
118 131 178 224 264 364 412 482 467 532 582 332 261 285 311 241 229 194 196 184 148 124 91 84 90 73 68
127 146 168 173 257 283 335 336 448 442 397 273 336 339 313 235 255 184 205 209 131 137 114 90 62 69 76
100 140 153 163 205 254 267 309 324 401 427 435 445 475 391 290 228 208 210 205 140 133 133 99 82 80 81
117 157 159 179 171 203 261 238 270 304 344 385 344 329 311 295 254 186 219 203 162 161 134 124 119 90 89

GFSFLT2_con_3kmhel_108.txt.gz
Helicity
233 213 198 187 232 204 235 286 282 323 395 521 476 470 425 388 295 223 115 111 88 57 66 67 57 53 55
203 263 247 227 199 233 217 308 311 373 491 525 492 381 343 325 315 181 82 97 90 79 79 63 57 61 52
149 380 344 279 287 228 332 331 376 450 507 411 378 335 326 282 237 114 86 101 93 88 78 65 68 58 61
138 275 219 198 208 251 301 373 436 445 412 348 301 284 238 178 107 55 105 97 95 82 72 74 72 68 56
179 239 258 213 261 269 244 336 407 419 373 342 345 302 231 82 45 97 99 84 85 79 76 63 68 58 41
146 94 103 184 250 289 339 359 307 250 289 318 309 252 186 117 68 93 86 89 86 90 75 80 80 61 54
138 156 154 172 219 328 362 350 284 341 349 307 327 242 221 197 116 100 72 87 91 80 77 85 77 66 76
186 158 138 171 179 213 272 299 452 420 329 445 396 339 382 275 117 97 86 86 88 90 82 71 76 84 81
224 183 187 169 158 227 252 353 438 455 461 500 476 503 481 419 236 84 92 93 91 86 74 73 80 91 98
223 227 214 199 157 187 246 326 285 340 414 465 498 561 427 345 276 176 141 90 97 95 73 79 79 90 99
151 155 218 233 218 173 172 309 246 363 369 553 635 652 573 414 459 254 221 189 179 135 79 84 73 76 102
151 151 140 212 214 214 177 221 225 197 296 388 518 668 736 638 507 459 391 256 182 169 165 121 82 72 99
171 205 134 118 147 184 286 347 272 345 252 295 439 567 545 453 489 296 390 288 234 223 218 188 138 117 112
123 144 102 121 165 187 229 315 359 347 434 388 401 377 532 429 328 203 181 175 231 216 213 182 136 124 119
85 115 77 70 111 95 142 162 270 350 431 428 456 441 394 476 293 147 203 268 183 257 231 195 151 135 121
101 113 122 97 88 90 108 191 175 284 393 423 428 502 547 511 364 189 233 290 224 261 195 209 176 135 110
67 80 64 88 50 126 152 197 230 262 281 358 371 479 442 459 404 298 276 272 262 215 208 195 197 143 114

GFSFLT2_con_3kmhel_111.txt.gz
Helicity
181 242 267 272 251 138 88 121 174 132 107 166 189 190 174 276 402 377 394 382 264 182 69 55 49 60 48
154 291 285 252 287 238 228 219 210 167 124 140 120 172 260 435 479 394 419 326 222 155 60 59 55 62 60
94 113 148 255 237 234 235 195 207 145 160 157 103 184 338 472 464 404 392 327 234 196 37 72 68 73 66
51 62 106 146 151 192 177 215 206 220 166 132 168 314 427 422 402 347 329 257 234 126 57 93 94 75 67
24 32 78 86 155 159 151 168 201 219 235 272 361 406 410 336 324 303 286 250 166 60 78 97 89 75 67
93 107 108 86 105 138 155 215 171 170 270 317 354 344 377 371 312 334 228 179 102 75 95 100 95 80 75
136 158 165 155 122 112 136 206 145 184 276 301 343 309 295 297 267 253 209 123 103 96 103 103 88 79 61
187 165 184 199 200 216 155 156 212 198 186 309 357 313 325 280 242 218 153 115 107 100 111 117 99 79 63
195 238 237 228 196 192 190 203 204 221 216 315 363 393 371 358 283 223 195 151 100 77 94 118 105 97 95
108 97 130 151 177 190 215 245 220 225 216 257 358 464 416 416 464 356 288 203 124 60 72 79 100 170 141
44 124 107 80 138 160 187 228 266 243 161 246 324 467 483 291 513 444 407 385 345 220 79 101 119 125 144
11 7 60 117 107 147 171 202 172 208 204 169 282 332 421 445 349 414 442 446 462 350 254 130 101 85 114
50 63 42 59 91 112 125 187 223 214 184 256 226 245 322 411 504 455 599 561 521 471 319 267 234 216 167
48 53 56 75 64 93 117 110 204 216 209 202 242 285 215 307 391 520 456 641 600 485 405 288 249 209 176
50 47 45 51 83 75 104 118 155 171 176 213 217 332 363 352 380 363 533 608 490 590 508 337 235 197 181
53 48 57 78 70 39 89 132 130 129 131 244 300 408 388 389 435 396 487 476 471 393 345 378 262 208 184
54 54 53 56 44 25 30 76 80 107 104 171 264 306 312 253 423 413 438 456 396 328 319 276 267 222 181

GFSFLT2_con_3kmhel_114.txt.gz
Helicity
134 99 163 176 175 204 275 248 218 188 100 86 69 108 131 110 115 104 125 196 304 303 304 269 151 130 43
184 62 189 187 221 201 253 219 255 189 182 73 103 160 158 121 139 85 148 238 340 391 390 251 198 112 46
56 79 71 83 41 126 131 178 191 131 113 107 134 141 174 126 96 153 216 307 456 441 305 230 191 115 88
31 11 5 -12 64 108 127 95 141 163 112 113 111 110 103 105 121 170 278 368 544 397 258 278 202 152 90
63 52 67 62 63 22 87 117 109 112 128 101 96 96 86 77 135 269 385 576 380 295 279 243 207 176 75
66 66 75 106 112 128 111 115 64 22 82 119 141 135 160 169 250 373 398 348 301 283 238 182 190 138 86
97 124 129 135 117 89 101 122 130 131 71 130 126 163 233 277 262 259 245 275 262 229 180 162 139 89 95
100 85 80 100 123 113 128 101 98 101 132 121 130 189 216 247 221 250 252 260 237 224 176 131 109 95 95
75 83 114 135 126 119 133 147 170 122 94 181 142 177 249 250 221 222 248 239 207 188 157 127 117 108 118
152 155 113 108 134 130 142 147 144 139 150 160 195 208 180 204 291 225 240 219 226 208 186 166 131 170 189
38 62 123 120 120 158 165 171 189 208 192 195 205 250 244 184 191 269 269 278 257 249 195 183 162 184 178
29 44 42 64 100 99 103 117 145 150 175 238 221 239 289 224 189 210 276 345 365 379 346 244 160 147 116
31 35 28 32 41 39 74 102 103 113 143 150 227 236 229 248 196 243 254 348 419 393 421 393 330 314 288
41 41 30 15 21 33 38 68 116 119 75 142 176 206 207 209 230 263 268 321 394 408 426 404 407 379 317
47 48 44 31 37 50 59 65 81 90 122 116 170 217 221 182 250 245 241 356 298 472 522 467 449 391 331
38 46 43 33 33 47 58 62 74 77 88 93 141 213 263 217 181 205 201 232 345 341 415 478 507 411 364
44 59 36 31 25 27 33 62 73 39 49 70 130 149 198 221 186 295 215 267 365 353 407 466 512 464 376

GFSFLT2_con_3kmhel_117.txt.gz
Helicity
116 107 111 150 159 114 144 176 218 182 132 140 131 173 211 132 125 167 182 153 135 105 116 162 234 247 231
93 116 134 90 152 199 103 90 119 118 103 141 125 152 203 127 181 117 95 129 134 133 135 203 279 322 279
113 120 46 30 39 83 145 155 188 87 121 88 103 50 150 201 208 133 104 127 153 167 123 280 349 323 262
2 -5 -4 57 55 7 38 4 88 124 114 65 89 64 53 72 120 99 170 159 121 139 236 371 406 419 287
15 26 12 28 34 73 68 44 -3 10 72 129 118 109 111 89 74 77 77 120 149 192 313 405 483 459 251
34 49 65 71 72 87 82 61 -30 94 40 71 80 92 101 115 102 75 76 101 118 221 415 541 557 311 204
48 57 58 94 61 71 94 100 99 68 54 42 51 75 83 90 80 84 36 45 177 327 506 437 253 177 186
64 73 59 67 74 68 80 84 94 101 118 28 47 86 105 131 135 122 172 259 324 413 269 226 181 174 163
88 83 88 93 94 75 109 93 69 87 131 101 75 40 92 126 173 147 141 173 187 213 193 162 179 136 144
94 119 115 109 116 86 73 73 84 32 116 165 158 163 56 39 132 205 202 167 228 261 252 206 193 229 200
44 69 95 103 111 108 107 108 114 109 76 112 118 183 164 133 125 156 194 219 231 236 190 196 201 244 261
52 53 68 80 90 97 105 113 107 94 95 113 99 127 172 174 149 129 197 177 231 291 247 192 167 160 157
57 48 57 56 62 61 78 86 93 78 82 106 123 120 126 133 156 147 142 207 202 286 338 325 287 272 262
55 43 40 53 57 43 29 61 69 120 109 86 114 122 131 135 136 150 132 171 161 264 326 336 337 329 293
63 39 26 22 23 14 19 21 43 64 94 115 98 123 123 129 158 145 144 130 187 212 335 324 360 361 346
54 38 27 24 30 10 14 42 51 51 54 84 110 123 125 126 100 135 165 158 163 221 265 300 369 377 364
38 43 39 38 28 30 32 32 41 50 65 60 75 100 120 151 124 43 144 171 209 249 303 314 313 373 419